date,time,SUV Intensity [MED/Hr],UV Index,Daily total [MED],Since Last [MED]
05/03/2022,00:05:23,0.000,0.0,0.0,0.0
05/03/2022,00:06:23,0.001,0.0,0.0,0.0
05/03/2022,00:07:31,-0.000,0.0,0.0,0.0
05/03/2022,00:08:22,0.001,0.0,0.0,0.0
05/03/2022,00:09:23,-0.001,0.0,0.0,0.0
05/03/2022,00:11:24,0.001,0.0,0.0,0.0
05/03/2022,00:12:23,-0.000,0.0,0.0,0.0
05/03/2022,00:13:22,-0.001,0.0,0.0,0.0
05/03/2022,00:14:23,-0.000,0.0,0.0,0.0
05/03/2022,00:15:25,0.000,0.0,0.0,0.0
05/03/2022,00:16:23,0.001,0.0,0.0,0.0
05/03/2022,00:17:23,0.001,0.0,0.0,0.0
05/03/2022,00:18:23,0.000,0.0,0.0,0.0
05/03/2022,00:19:23,0.000,0.0,0.0,0.0
05/03/2022,00:20:23,-0.001,0.0,0.0,0.0
05/03/2022,00:21:31,0.000,0.0,0.0,0.0
05/03/2022,00:22:23,-0.000,0.0,0.0,0.0
05/03/2022,00:23:23,0.000,0.0,0.0,0.0
05/03/2022,00:24:23,-0.001,0.0,0.0,0.0
05/03/2022,00:25:22,0.000,0.0,0.0,0.0
05/03/2022,00:26:23,0.000,0.0,0.0,0.0
05/03/2022,00:27:23,0.000,0.0,0.0,0.0
05/03/2022,00:28:47,0.000,0.0,0.0,0.0
05/03/2022,00:30:23,-0.000,0.0,0.0,0.0
05/03/2022,00:31:23,-0.000,0.0,0.0,0.0
05/03/2022,00:32:23,0.000,0.0,0.0,0.0
05/03/2022,00:33:23,0.000,0.0,0.0,0.0
05/03/2022,00:34:23,0.001,0.0,0.0,0.0
05/03/2022,00:35:23,0.000,0.0,0.0,0.0
05/03/2022,00:36:23,-0.001,0.0,0.0,0.0
05/03/2022,00:37:23,-0.000,0.0,0.0,0.0
05/03/2022,00:38:22,-0.000,0.0,0.0,0.0
05/03/2022,00:39:31,0.000,0.0,0.0,0.0
05/03/2022,00:40:23,0.001,0.0,0.0,0.0
05/03/2022,00:41:23,0.000,0.0,0.0,0.0
05/03/2022,00:42:32,0.000,0.0,0.0,0.0
05/03/2022,00:43:22,0.000,0.0,0.0,0.0
05/03/2022,00:44:23,0.001,0.0,0.0,0.0
05/03/2022,00:45:24,-0.001,0.0,0.0,0.0
05/03/2022,00:46:23,-0.001,0.0,0.0,0.0
05/03/2022,00:47:23,0.001,0.0,0.0,0.0
05/03/2022,00:48:23,0.000,0.0,0.0,0.0
05/03/2022,00:49:31,-0.001,0.0,0.0,0.0
05/03/2022,00:50:22,-0.001,0.0,0.0,0.0
05/03/2022,00:51:23,0.001,0.0,0.0,0.0
05/03/2022,00:52:32,0.000,0.0,0.0,0.0
05/03/2022,00:53:22,0.000,0.0,0.0,0.0
05/03/2022,00:54:22,0.000,0.0,0.0,0.0
05/03/2022,00:55:23,-0.001,0.0,0.0,0.0
05/03/2022,00:56:22,0.001,0.0,0.0,0.0
05/03/2022,00:57:23,0.001,0.0,0.0,0.0
05/03/2022,00:58:23,0.000,0.0,0.0,0.0
05/03/2022,00:59:22,-0.001,0.0,0.0,0.0
05/03/2022,01:00:23,0.001,0.0,0.0,0.0
05/03/2022,01:01:23,0.000,0.0,0.0,0.0
05/03/2022,01:02:23,-0.001,0.0,0.0,0.0
05/03/2022,01:03:31,0.000,0.0,0.0,0.0
05/03/2022,01:04:23,0.000,0.0,0.0,0.0
05/03/2022,01:05:23,0.000,0.0,0.0,0.0
05/03/2022,01:06:23,0.001,0.0,0.0,0.0
05/03/2022,01:07:23,0.000,0.0,0.0,0.0
05/03/2022,01:08:23,-0.000,0.0,0.0,0.0
05/03/2022,01:09:22,-0.002,0.0,0.0,0.0
05/03/2022,01:10:23,-0.001,0.0,0.0,0.0
05/03/2022,01:11:23,0.000,0.0,0.0,0.0
05/03/2022,01:12:23,0.000,0.0,0.0,0.0
05/03/2022,01:13:31,0.001,0.0,0.0,0.0
05/03/2022,01:14:23,-0.001,0.0,0.0,0.0
05/03/2022,01:15:23,-0.000,0.0,0.0,0.0
05/03/2022,01:16:23,0.000,0.0,0.0,0.0
05/03/2022,01:17:23,-0.000,0.0,0.0,0.0
05/03/2022,01:18:23,0.000,0.0,0.0,0.0
05/03/2022,01:19:23,-0.000,0.0,0.0,0.0
05/03/2022,01:20:23,-0.000,0.0,0.0,0.0
05/03/2022,01:21:32,0.000,0.0,0.0,0.0
05/03/2022,01:22:23,-0.001,0.0,0.0,0.0
05/03/2022,01:23:23,-0.000,0.0,0.0,0.0
05/03/2022,01:24:23,0.000,0.0,0.0,0.0
05/03/2022,01:25:23,-0.000,0.0,0.0,0.0
05/03/2022,01:26:23,-0.001,0.0,0.0,0.0
05/03/2022,01:27:23,0.001,0.0,0.0,0.0
05/03/2022,01:28:23,-0.000,0.0,0.0,0.0
05/03/2022,01:29:23,-0.000,0.0,0.0,0.0
05/03/2022,01:30:23,-0.000,0.0,0.0,0.0
05/03/2022,01:31:33,-0.000,0.0,0.0,0.0
05/03/2022,01:32:22,-0.000,0.0,0.0,0.0
05/03/2022,01:33:23,-0.000,0.0,0.0,0.0
05/03/2022,01:34:31,-0.000,0.0,0.0,0.0
05/03/2022,01:35:22,-0.000,0.0,0.0,0.0
05/03/2022,01:36:31,-0.000,0.0,0.0,0.0
05/03/2022,01:37:23,-0.001,0.0,0.0,0.0
05/03/2022,01:38:23,-0.001,0.0,0.0,0.0
05/03/2022,01:39:23,-0.000,0.0,0.0,0.0
05/03/2022,01:40:23,0.000,0.0,0.0,0.0
05/03/2022,01:41:23,-0.000,0.0,0.0,0.0
05/03/2022,01:42:23,-0.000,0.0,0.0,0.0
05/03/2022,01:43:23,0.001,0.0,0.0,0.0
05/03/2022,01:44:23,-0.000,0.0,0.0,0.0
05/03/2022,01:45:31,-0.000,0.0,0.0,0.0
05/03/2022,01:46:23,-0.000,0.0,0.0,0.0
05/03/2022,01:47:23,-0.000,0.0,0.0,0.0
05/03/2022,01:48:23,-0.000,0.0,0.0,0.0
05/03/2022,01:49:23,-0.000,0.0,0.0,0.0
05/03/2022,01:50:23,-0.000,0.0,0.0,0.0
05/03/2022,01:51:23,-0.000,0.0,0.0,0.0
05/03/2022,01:52:23,-0.000,0.0,0.0,0.0
05/03/2022,01:53:23,0.000,0.0,0.0,0.0
05/03/2022,01:54:23,-0.000,0.0,0.0,0.0
05/03/2022,01:55:32,0.001,0.0,0.0,0.0
05/03/2022,01:56:23,-0.001,0.0,0.0,0.0
05/03/2022,01:57:23,-0.000,0.0,0.0,0.0
05/03/2022,01:58:23,0.000,0.0,0.0,0.0
05/03/2022,01:59:23,-0.000,0.0,0.0,0.0
05/03/2022,02:00:23,-0.001,0.0,0.0,0.0
05/03/2022,02:01:23,0.000,0.0,0.0,0.0
05/03/2022,02:02:22,-0.000,0.0,0.0,0.0
05/03/2022,02:03:23,-0.001,0.0,0.0,0.0
05/03/2022,02:04:23,-0.000,0.0,0.0,0.0
05/03/2022,02:05:32,-0.000,0.0,0.0,0.0
05/03/2022,02:06:31,0.000,0.0,0.0,0.0
05/03/2022,02:07:23,-0.000,0.0,0.0,0.0
05/03/2022,02:08:23,-0.001,0.0,0.0,0.0
05/03/2022,02:09:31,-0.000,0.0,0.0,0.0
05/03/2022,02:10:23,-0.000,0.0,0.0,0.0
05/03/2022,02:11:23,0.001,0.0,0.0,0.0
05/03/2022,02:12:23,-0.000,0.0,0.0,0.0
05/03/2022,02:13:23,-0.001,0.0,0.0,0.0
05/03/2022,02:14:23,0.000,0.0,0.0,0.0
05/03/2022,02:15:23,0.000,0.0,0.0,0.0
05/03/2022,02:16:23,0.000,0.0,0.0,0.0
05/03/2022,02:17:23,0.000,0.0,0.0,0.0
05/03/2022,02:18:23,-0.001,0.0,0.0,0.0
05/03/2022,02:19:32,-0.000,0.0,0.0,0.0
05/03/2022,02:20:30,-0.000,0.0,0.0,0.0
05/03/2022,02:21:22,-0.002,0.0,0.0,0.0
05/03/2022,02:22:23,-0.000,0.0,0.0,0.0
05/03/2022,02:23:23,-0.000,0.0,0.0,0.0
05/03/2022,02:24:23,-0.001,0.0,0.0,0.0
05/03/2022,02:25:23,-0.001,0.0,0.0,0.0
05/03/2022,02:26:23,-0.000,0.0,0.0,0.0
05/03/2022,02:27:31,-0.000,0.0,0.0,0.0
05/03/2022,02:28:23,-0.000,0.0,0.0,0.0
05/03/2022,02:29:23,-0.001,0.0,0.0,0.0
05/03/2022,02:30:23,0.000,0.0,0.0,0.0
05/03/2022,02:31:23,-0.000,0.0,0.0,0.0
05/03/2022,02:32:23,-0.000,0.0,0.0,0.0
05/03/2022,02:33:23,-0.001,0.0,0.0,0.0
05/03/2022,02:34:23,-0.001,0.0,0.0,0.0
05/03/2022,02:35:23,-0.000,0.0,0.0,0.0
05/03/2022,02:36:23,-0.000,0.0,0.0,0.0
05/03/2022,02:37:40,-0.000,0.0,0.0,0.0
05/03/2022,02:39:24,0.000,0.0,0.0,0.0
05/03/2022,02:40:23,-0.000,0.0,0.0,0.0
05/03/2022,02:41:31,-0.001,0.0,0.0,0.0
05/03/2022,02:42:23,-0.000,0.0,0.0,0.0
05/03/2022,02:43:23,-0.000,0.0,0.0,0.0
05/03/2022,02:44:23,-0.000,0.0,0.0,0.0
05/03/2022,02:45:24,-0.000,0.0,0.0,0.0
05/03/2022,02:46:23,-0.001,0.0,0.0,0.0
05/03/2022,02:47:23,-0.001,0.0,0.0,0.0
05/03/2022,02:48:23,-0.001,0.0,0.0,0.0
05/03/2022,02:49:23,-0.000,0.0,0.0,0.0
05/03/2022,02:50:23,-0.000,0.0,0.0,0.0
05/03/2022,02:51:32,-0.000,0.0,0.0,0.0
05/03/2022,02:52:23,0.000,0.0,0.0,0.0
05/03/2022,02:53:23,-0.001,0.0,0.0,0.0
05/03/2022,02:54:32,-0.000,0.0,0.0,0.0
05/03/2022,02:55:23,-0.000,0.0,0.0,0.0
05/03/2022,02:56:23,-0.001,0.0,0.0,0.0
05/03/2022,02:57:23,-0.001,0.0,0.0,0.0
05/03/2022,02:58:23,0.001,0.0,0.0,0.0
05/03/2022,02:59:24,-0.000,0.0,0.0,0.0
05/03/2022,03:00:23,-0.001,0.0,0.0,0.0
05/03/2022,03:01:23,-0.000,0.0,0.0,0.0
05/03/2022,03:02:23,-0.000,0.0,0.0,0.0
05/03/2022,03:03:23,-0.000,0.0,0.0,0.0
05/03/2022,03:04:23,-0.000,0.0,0.0,0.0
05/03/2022,03:05:23,-0.000,0.0,0.0,0.0
05/03/2022,03:06:23,-0.000,0.0,0.0,0.0
05/03/2022,03:07:23,0.000,0.0,0.0,0.0
05/03/2022,03:08:23,-0.000,0.0,0.0,0.0
05/03/2022,03:09:23,-0.000,0.0,0.0,0.0
05/03/2022,03:10:23,-0.000,0.0,0.0,0.0
05/03/2022,03:11:23,-0.000,0.0,0.0,0.0
05/03/2022,03:12:31,-0.000,0.0,0.0,0.0
05/03/2022,03:13:23,-0.001,0.0,0.0,0.0
05/03/2022,03:14:23,-0.000,0.0,0.0,0.0
05/03/2022,03:15:24,-0.001,0.0,0.0,0.0
05/03/2022,03:16:24,-0.001,0.0,0.0,0.0
05/03/2022,03:17:21,-0.000,0.0,0.0,0.0
05/03/2022,03:18:23,-0.000,0.0,0.0,0.0
05/03/2022,03:19:23,-0.000,0.0,0.0,0.0
05/03/2022,03:20:23,-0.001,0.0,0.0,0.0
05/03/2022,03:21:23,0.001,0.0,0.0,0.0
05/03/2022,03:22:23,-0.000,0.0,0.0,0.0
05/03/2022,03:23:32,-0.000,0.0,0.0,0.0
05/03/2022,03:24:23,0.001,0.0,0.0,0.0
05/03/2022,03:25:23,-0.000,0.0,0.0,0.0
05/03/2022,03:26:23,-0.001,0.0,0.0,0.0
05/03/2022,03:27:23,-0.001,0.0,0.0,0.0
05/03/2022,03:28:23,-0.001,0.0,0.0,0.0
05/03/2022,03:29:23,-0.000,0.0,0.0,0.0
05/03/2022,03:30:23,-0.000,0.0,0.0,0.0
05/03/2022,03:31:23,-0.000,0.0,0.0,0.0
05/03/2022,03:32:24,0.000,0.0,0.0,0.0
05/03/2022,03:33:32,-0.000,0.0,0.0,0.0
05/03/2022,03:34:23,-0.001,0.0,0.0,0.0
05/03/2022,03:35:23,0.001,0.0,0.0,0.0
05/03/2022,03:36:23,-0.000,0.0,0.0,0.0
05/03/2022,03:37:23,-0.000,0.0,0.0,0.0
05/03/2022,03:38:23,-0.000,0.0,0.0,0.0
05/03/2022,03:39:23,0.001,0.0,0.0,0.0
05/03/2022,03:40:23,-0.000,0.0,0.0,0.0
05/03/2022,03:41:23,-0.001,0.0,0.0,0.0
05/03/2022,03:42:23,-0.000,0.0,0.0,0.0
05/03/2022,03:43:23,-0.000,0.0,0.0,0.0
05/03/2022,03:44:23,-0.000,0.0,0.0,0.0
05/03/2022,03:45:23,0.000,0.0,0.0,0.0
05/03/2022,03:46:23,-0.000,0.0,0.0,0.0
05/03/2022,03:47:23,-0.000,0.0,0.0,0.0
05/03/2022,03:48:23,0.000,0.0,0.0,0.0
05/03/2022,03:49:24,-0.001,0.0,0.0,0.0
05/03/2022,03:50:23,-0.000,0.0,0.0,0.0
05/03/2022,03:51:23,-0.000,0.0,0.0,0.0
05/03/2022,03:52:23,0.000,0.0,0.0,0.0
05/03/2022,03:53:25,-0.001,0.0,0.0,0.0
05/03/2022,03:54:23,-0.000,0.0,0.0,0.0
05/03/2022,03:55:23,-0.000,0.0,0.0,0.0
05/03/2022,03:56:23,-0.001,0.0,0.0,0.0
05/03/2022,03:57:32,-0.000,0.0,0.0,0.0
05/03/2022,03:58:23,-0.001,0.0,0.0,0.0
05/03/2022,03:59:25,0.000,0.0,0.0,0.0
05/03/2022,04:00:23,0.000,0.0,0.0,0.0
05/03/2022,04:01:23,0.000,0.0,0.0,0.0
05/03/2022,04:02:24,-0.000,0.0,0.0,0.0
05/03/2022,04:03:23,-0.001,0.0,0.0,0.0
05/03/2022,04:04:23,-0.001,0.0,0.0,0.0
05/03/2022,04:05:23,-0.000,0.0,0.0,0.0
05/03/2022,04:06:24,-0.001,0.0,0.0,0.0
05/03/2022,04:07:23,0.000,0.0,0.0,0.0
05/03/2022,04:08:23,-0.000,0.0,0.0,0.0
05/03/2022,04:09:23,-0.001,0.0,0.0,0.0
05/03/2022,04:10:23,-0.000,0.0,0.0,0.0
05/03/2022,04:11:23,-0.001,0.0,0.0,0.0
05/03/2022,04:12:23,0.000,0.0,0.0,0.0
05/03/2022,04:13:23,-0.000,0.0,0.0,0.0
05/03/2022,04:14:23,-0.000,0.0,0.0,0.0
05/03/2022,04:15:32,-0.000,0.0,0.0,0.0
05/03/2022,04:16:22,0.001,0.0,0.0,0.0
05/03/2022,04:17:25,0.000,0.0,0.0,0.0
05/03/2022,04:18:23,-0.001,0.0,0.0,0.0
05/03/2022,04:19:23,-0.000,0.0,0.0,0.0
05/03/2022,04:20:23,-0.000,0.0,0.0,0.0
05/03/2022,04:21:24,0.000,0.0,0.0,0.0
05/03/2022,04:22:23,-0.001,0.0,0.0,0.0
05/03/2022,04:23:23,-0.000,0.0,0.0,0.0
05/03/2022,04:24:23,-0.001,0.0,0.0,0.0
05/03/2022,04:25:24,0.000,0.0,0.0,0.0
05/03/2022,04:26:23,0.001,0.0,0.0,0.0
05/03/2022,04:27:24,-0.001,0.0,0.0,0.0
05/03/2022,04:28:23,-0.001,0.0,0.0,0.0
05/03/2022,04:29:31,-0.000,0.0,0.0,0.0
05/03/2022,04:30:23,-0.001,0.0,0.0,0.0
05/03/2022,04:31:23,-0.001,0.0,0.0,0.0
05/03/2022,04:32:24,-0.001,0.0,0.0,0.0
05/03/2022,04:33:23,-0.001,0.0,0.0,0.0
05/03/2022,04:34:23,-0.001,0.0,0.0,0.0
05/03/2022,04:35:23,-0.001,0.0,0.0,0.0
05/03/2022,04:36:23,-0.000,0.0,0.0,0.0
05/03/2022,04:37:23,0.000,0.0,0.0,0.0
05/03/2022,04:38:23,-0.001,0.0,0.0,0.0
05/03/2022,04:39:31,-0.001,0.0,0.0,0.0
05/03/2022,04:40:31,-0.001,0.0,0.0,0.0
05/03/2022,04:41:23,-0.001,0.0,0.0,0.0
05/03/2022,04:42:23,-0.001,0.0,0.0,0.0
05/03/2022,04:43:23,-0.001,0.0,0.0,0.0
05/03/2022,04:44:23,0.000,0.0,0.0,0.0
05/03/2022,04:45:23,-0.001,0.0,0.0,0.0
05/03/2022,04:46:23,-0.000,0.0,0.0,0.0
05/03/2022,04:47:31,-0.001,0.0,0.0,0.0
05/03/2022,04:48:23,-0.001,0.0,0.0,0.0
05/03/2022,04:49:24,0.000,0.0,0.0,0.0
05/03/2022,04:50:23,-0.001,0.0,0.0,0.0
05/03/2022,04:51:23,-0.001,0.0,0.0,0.0
05/03/2022,04:52:24,-0.001,0.0,0.0,0.0
05/03/2022,04:53:23,-0.000,0.0,0.0,0.0
05/03/2022,04:54:23,-0.000,0.0,0.0,0.0
05/03/2022,04:55:23,-0.001,0.0,0.0,0.0
05/03/2022,04:56:24,-0.001,0.0,0.0,0.0
05/03/2022,04:57:32,-0.001,0.0,0.0,0.0
05/03/2022,04:58:23,-0.001,0.0,0.0,0.0
05/03/2022,04:59:24,-0.001,0.0,0.0,0.0
05/03/2022,05:00:32,0.000,0.0,0.0,0.0
05/03/2022,05:01:23,-0.001,0.0,0.0,0.0
05/03/2022,05:02:23,-0.001,0.0,0.0,0.0
05/03/2022,05:03:21,-0.000,0.0,0.0,0.0
05/03/2022,05:04:23,-0.001,0.0,0.0,0.0
05/03/2022,05:05:24,-0.001,0.0,0.0,0.0
05/03/2022,05:06:23,-0.001,0.0,0.0,0.0
05/03/2022,05:07:23,-0.001,0.0,0.0,0.0
05/03/2022,05:08:32,-0.001,0.0,0.0,0.0
05/03/2022,05:09:24,-0.001,0.0,0.0,0.0
05/03/2022,05:10:24,-0.001,0.0,0.0,0.0
05/03/2022,05:11:32,-0.001,0.0,0.0,0.0
05/03/2022,05:12:23,-0.001,0.0,0.0,0.0
05/03/2022,05:13:23,-0.001,0.0,0.0,0.0
05/03/2022,05:14:23,-0.000,0.0,0.0,0.0
05/03/2022,05:15:23,-0.001,0.0,0.0,0.0
05/03/2022,05:16:24,-0.001,0.0,0.0,0.0
05/03/2022,05:17:24,-0.001,0.0,0.0,0.0
05/03/2022,05:18:23,-0.001,0.0,0.0,0.0
05/03/2022,05:19:23,-0.001,0.0,0.0,0.0
05/03/2022,05:20:23,0.000,0.0,0.0,0.0
05/03/2022,05:21:23,-0.001,0.0,0.0,0.0
05/03/2022,05:22:24,-0.001,0.0,0.0,0.0
05/03/2022,05:23:23,-0.001,0.0,0.0,0.0
05/03/2022,05:24:23,-0.001,0.0,0.0,0.0
05/03/2022,05:25:23,-0.000,0.0,0.0,0.0
05/03/2022,05:26:23,-0.000,0.0,0.0,0.0
05/03/2022,05:27:23,-0.001,0.0,0.0,0.0
05/03/2022,05:28:23,-0.001,0.0,0.0,0.0
05/03/2022,05:29:32,-0.001,0.0,0.0,0.0
05/03/2022,05:30:23,-0.001,0.0,0.0,0.0
05/03/2022,05:31:40,-0.001,0.0,0.0,0.0
05/03/2022,05:33:23,-0.001,0.0,0.0,0.0
05/03/2022,05:34:23,-0.001,0.0,0.0,0.0
05/03/2022,05:35:23,-0.001,0.0,0.0,0.0
05/03/2022,05:36:23,-0.001,0.0,0.0,0.0
05/03/2022,05:37:24,-0.001,0.0,0.0,0.0
05/03/2022,05:38:23,-0.000,0.0,0.0,0.0
05/03/2022,05:39:23,-0.001,0.0,0.0,0.0
05/03/2022,05:40:32,-0.001,0.0,0.0,0.0
05/03/2022,05:41:24,-0.001,0.0,0.0,0.0
05/03/2022,05:42:23,0.000,0.0,0.0,0.0
05/03/2022,05:43:24,-0.001,0.0,0.0,0.0
05/03/2022,05:44:23,-0.001,0.0,0.0,0.0
05/03/2022,05:45:24,-0.001,0.0,0.0,0.0
05/03/2022,05:46:24,-0.001,0.0,0.0,0.0
05/03/2022,05:47:23,-0.001,0.0,0.0,0.0
05/03/2022,05:48:23,-0.001,0.0,0.0,0.0
05/03/2022,05:49:23,0.000,0.0,0.0,0.0
05/03/2022,05:50:32,-0.001,0.0,0.0,0.0
05/03/2022,05:51:23,-0.001,0.0,0.0,0.0
05/03/2022,05:52:23,-0.001,0.0,0.0,0.0
05/03/2022,05:53:23,-0.001,0.0,0.0,0.0
05/03/2022,05:54:24,-0.001,0.0,0.0,0.0
05/03/2022,05:55:23,0.001,0.0,0.0,0.0
05/03/2022,05:56:23,-0.001,0.0,0.0,0.0
05/03/2022,05:57:23,-0.001,0.0,0.0,0.0
05/03/2022,05:58:31,-0.001,0.0,0.0,0.0
05/03/2022,05:59:23,-0.001,0.0,0.0,0.0
05/03/2022,06:00:31,0.001,0.0,0.0,0.0
05/03/2022,06:01:31,-0.001,0.0,0.0,0.0
05/03/2022,06:02:23,-0.001,0.0,0.0,0.0
05/03/2022,06:03:23,-0.001,0.0,0.0,0.0
05/03/2022,06:04:23,-0.001,0.0,0.0,0.0
05/03/2022,06:05:23,-0.001,0.0,0.0,0.0
05/03/2022,06:06:24,-0.000,0.0,0.0,0.0
05/03/2022,06:07:23,-0.001,0.0,0.0,0.0
05/03/2022,06:08:31,-0.000,0.0,0.0,0.0
05/03/2022,06:09:23,-0.001,0.0,0.0,0.0
05/03/2022,06:10:23,0.000,0.0,0.0,0.0
05/03/2022,06:11:32,0.000,0.0,0.0,0.0
05/03/2022,06:12:23,-0.001,0.0,0.0,0.0
05/03/2022,06:13:24,-0.001,0.0,0.0,0.0
05/03/2022,06:14:31,0.000,0.0,0.0,0.0
05/03/2022,06:15:23,-0.001,0.0,0.0,0.0
05/03/2022,06:16:24,-0.001,0.0,0.0,0.0
05/03/2022,06:17:23,-0.001,0.0,0.0,0.0
05/03/2022,06:18:32,-0.001,0.0,0.0,0.0
05/03/2022,06:19:23,-0.000,0.0,0.0,0.0
05/03/2022,06:20:23,-0.001,0.0,0.0,0.0
05/03/2022,06:21:25,0.000,0.0,0.0,0.0
05/03/2022,06:22:24,-0.000,0.0,0.0,0.0
05/03/2022,06:23:24,-0.000,0.0,0.0,0.0
05/03/2022,06:24:24,-0.000,0.0,0.0,0.0
05/03/2022,06:25:23,-0.001,0.0,0.0,0.0
05/03/2022,06:26:32,-0.000,0.0,0.0,0.0
05/03/2022,06:27:25,-0.000,0.0,0.0,0.0
05/03/2022,06:28:24,-0.000,0.0,0.0,0.0
05/03/2022,06:29:24,-0.001,0.0,0.0,0.0
05/03/2022,06:30:24,0.001,0.0,0.0,0.0
05/03/2022,06:31:23,0.000,0.0,0.0,0.0
05/03/2022,06:32:23,-0.000,0.0,0.0,0.0
05/03/2022,06:33:23,-0.000,0.0,0.0,0.0
05/03/2022,06:34:23,0.001,0.0,0.0,0.0
05/03/2022,06:35:24,-0.000,0.0,0.0,0.0
05/03/2022,06:36:32,0.000,0.0,0.0,0.0
05/03/2022,06:37:23,-0.001,0.0,0.0,0.0
05/03/2022,06:38:23,-0.000,0.0,0.0,0.0
05/03/2022,06:39:24,-0.001,0.0,0.0,0.0
05/03/2022,06:40:24,-0.000,0.0,0.0,0.0
05/03/2022,06:41:23,-0.001,0.0,0.0,0.0
05/03/2022,06:42:23,-0.001,0.0,0.0,0.0
05/03/2022,06:43:32,0.000,0.0,0.0,0.0
05/03/2022,06:44:23,-0.001,0.0,0.0,0.0
05/03/2022,06:45:24,0.000,0.0,0.0,0.0
05/03/2022,06:46:23,0.001,0.0,0.0,0.0
05/03/2022,06:47:23,0.001,0.0,0.0,0.0
05/03/2022,06:48:24,0.000,0.0,0.0,0.0
05/03/2022,06:49:24,0.001,0.0,0.0,0.0
05/03/2022,06:50:23,-0.000,0.0,0.0,0.0
05/03/2022,06:51:31,0.001,0.0,0.0,0.0
05/03/2022,06:52:23,0.001,0.0,0.0,0.0
05/03/2022,06:53:23,0.001,0.0,0.0,0.0
05/03/2022,06:54:23,0.002,0.0,0.0,0.0
05/03/2022,06:55:24,0.001,0.0,0.0,0.0
05/03/2022,06:56:24,0.001,0.0,0.0,0.0
05/03/2022,06:57:32,0.001,0.0,0.0,0.0
05/03/2022,06:58:23,0.001,0.0,0.0,0.0
05/03/2022,06:59:32,0.001,0.0,0.0,0.0
05/03/2022,07:00:23,0.002,0.0,0.0,0.0
05/03/2022,07:01:24,0.002,0.0,0.0,0.0
05/03/2022,07:02:23,0.001,0.0,0.0,0.0
05/03/2022,07:03:23,0.003,0.0,0.0,0.0
05/03/2022,07:04:24,0.002,0.0,0.0,0.0
05/03/2022,07:05:24,0.001,0.0,0.0,0.0
05/03/2022,07:06:24,0.002,0.0,0.0,0.0
05/03/2022,07:07:23,0.002,0.0,0.0,0.0
05/03/2022,07:08:23,0.002,0.0,0.0,0.0
05/03/2022,07:09:24,0.002,0.0,0.0,0.0
05/03/2022,07:10:23,0.003,0.0,0.0,0.0
05/03/2022,07:11:23,0.002,0.0,0.0,0.0
05/03/2022,07:12:24,0.002,0.0,0.0,0.0
05/03/2022,07:13:24,0.003,0.0,0.0,0.0
05/03/2022,07:14:23,0.003,0.0,0.0,0.0
05/03/2022,07:15:23,0.003,0.0,0.0,0.0
05/03/2022,07:16:23,0.002,0.0,0.0,0.0
05/03/2022,07:17:23,0.003,0.0,0.0,0.0
05/03/2022,07:18:32,0.002,0.0,0.0,0.0
05/03/2022,07:19:22,0.003,0.0,0.0,0.0
05/03/2022,07:20:24,0.004,0.0,0.0,0.0
05/03/2022,07:21:23,0.005,0.0,0.0,0.0
05/03/2022,07:22:23,0.005,0.0,0.0,0.0
05/03/2022,07:23:23,0.005,0.0,0.0,0.0
05/03/2022,07:24:24,0.007,0.0,0.0,0.0
05/03/2022,07:25:24,0.006,0.0,0.0,0.0
05/03/2022,07:26:23,0.005,0.0,0.0,0.0
05/03/2022,07:27:10,0.006,0.0,0.0,0.0
05/03/2022,07:28:24,0.005,0.0,0.0,0.0
05/03/2022,07:29:32,0.006,0.0,0.0,0.0
05/03/2022,07:30:24,0.008,0.0,0.0,0.0
05/03/2022,07:31:23,0.009,0.0,0.001,0.001
05/03/2022,07:32:24,0.010,0.0,0.001,0.0
05/03/2022,07:33:24,0.012,0.0,0.001,0.0
05/03/2022,07:34:24,0.014,0.0,0.001,0.0
05/03/2022,07:35:23,0.014,0.0,0.001,0.0
05/03/2022,07:36:23,0.015,0.0,0.002,0.001
05/03/2022,07:37:23,0.018,0.0,0.002,0.0
05/03/2022,07:38:24,0.021,0.0,0.002,0.0
05/03/2022,07:39:24,0.024,0.0,0.003,0.001
05/03/2022,07:40:24,0.024,0.0,0.003,0.0
05/03/2022,07:41:23,0.026,0.0,0.003,0.0
05/03/2022,07:42:24,0.024,0.0,0.004,0.001
05/03/2022,07:43:23,0.024,0.0,0.004,0.0
05/03/2022,07:44:23,0.024,0.0,0.005,0.001
05/03/2022,07:45:23,0.024,0.0,0.005,0.0
05/03/2022,07:46:24,0.023,0.0,0.005,0.0
05/03/2022,07:47:23,0.022,0.0,0.006,0.001
05/03/2022,07:48:23,0.021,0.0,0.006,0.0
05/03/2022,07:49:24,0.020,0.0,0.006,0.0
05/03/2022,07:50:24,0.020,0.0,0.007,0.001
05/03/2022,07:51:24,0.022,0.0,0.007,0.0
05/03/2022,07:52:24,0.024,0.0,0.008,0.001
05/03/2022,07:53:23,0.026,0.0,0.008,0.0
05/03/2022,07:54:31,0.024,0.0,0.008,0.0
05/03/2022,07:55:23,0.024,0.0,0.009,0.001
05/03/2022,07:56:24,0.022,0.0,0.009,0.0
05/03/2022,07:57:23,0.021,0.0,0.009,0.0
05/03/2022,07:58:24,0.020,0.0,0.01,0.001
05/03/2022,07:59:23,0.020,0.0,0.01,0.0
05/03/2022,08:00:24,0.021,0.0,0.01,0.0
05/03/2022,08:01:24,0.022,0.0,0.011,0.001
05/03/2022,08:02:24,0.024,0.0,0.011,0.0
05/03/2022,08:03:23,0.027,0.0,0.012,0.001
05/03/2022,08:04:24,0.028,0.0,0.012,0.0
05/03/2022,08:06:16,0.029,0.0,0.013,0.001
05/03/2022,08:07:24,0.027,0.0,0.014,0.001
05/03/2022,08:08:24,0.026,0.0,0.014,0.0
05/03/2022,08:09:23,0.028,0.0,0.014,0.0
05/03/2022,08:10:24,0.028,0.0,0.015,0.001
05/03/2022,08:11:24,0.029,0.0,0.015,0.0
05/03/2022,08:12:23,0.031,0.0,0.016,0.001
05/03/2022,08:13:24,0.031,0.0,0.016,0.0
05/03/2022,08:14:24,0.032,0.0,0.017,0.001
05/03/2022,08:15:32,0.032,0.0,0.018,0.001
05/03/2022,08:16:24,0.028,0.0,0.018,0.0
05/03/2022,08:17:23,0.025,0.0,0.018,0.0
05/03/2022,08:18:14,0.029,0.0,0.019,0.001
05/03/2022,08:19:25,0.031,0.0,0.019,0.0
05/03/2022,08:20:23,0.037,0.0,0.02,0.001
05/03/2022,08:21:23,0.038,0.0,0.021,0.001
05/03/2022,08:22:24,0.034,0.0,0.021,0.0
05/03/2022,08:23:23,0.033,0.0,0.022,0.001
05/03/2022,08:24:24,0.040,0.0,0.022,0.0
05/03/2022,08:25:24,0.040,0.0,0.023,0.001
05/03/2022,08:26:23,0.037,0.0,0.024,0.001
05/03/2022,08:27:24,0.037,0.0,0.024,0.0
05/03/2022,08:28:24,0.038,0.0,0.025,0.001
05/03/2022,08:29:25,0.044,0.0,0.026,0.001
05/03/2022,08:31:16,0.046,0.0,0.027,0.001
05/03/2022,08:32:23,0.041,0.0,0.028,0.001
05/03/2022,08:33:32,0.041,0.0,0.029,0.001
05/03/2022,08:34:23,0.047,0.0,0.029,0.0
05/03/2022,08:35:24,0.052,0.0,0.03,0.001
05/03/2022,08:36:32,0.061,0.0,0.031,0.001
05/03/2022,08:37:24,0.071,0.0,0.032,0.001
05/03/2022,08:38:24,0.078,0.0,0.033,0.001
05/03/2022,08:39:24,0.069,0.0,0.035,0.002
05/03/2022,08:40:23,0.066,0.0,0.036,0.001
05/03/2022,08:41:23,0.077,0.0,0.037,0.001
05/03/2022,08:42:24,0.085,0.0,0.038,0.001
05/03/2022,08:43:24,0.085,0.0,0.04,0.002
05/03/2022,08:44:32,0.079,0.0,0.041,0.001
05/03/2022,08:45:22,0.085,0.0,0.042,0.001
05/03/2022,08:46:24,0.092,0.0,0.044,0.002
05/03/2022,08:47:23,0.094,0.0,0.045,0.001
05/03/2022,08:48:24,0.091,0.0,0.047,0.002
05/03/2022,08:49:24,0.077,0.0,0.048,0.001
05/03/2022,08:50:24,0.072,0.0,0.05,0.002
05/03/2022,08:51:24,0.081,0.0,0.051,0.001
05/03/2022,08:52:24,0.079,0.0,0.052,0.001
05/03/2022,08:53:24,0.070,0.0,0.053,0.001
05/03/2022,08:54:32,0.065,0.0,0.055,0.002
05/03/2022,08:55:23,0.069,0.0,0.056,0.001
05/03/2022,08:56:23,0.077,0.0,0.057,0.001
05/03/2022,08:57:24,0.079,0.0,0.058,0.001
05/03/2022,08:58:24,0.074,0.0,0.06,0.002
05/03/2022,08:59:24,0.074,0.0,0.061,0.001
05/03/2022,09:00:23,0.077,0.0,0.062,0.001
05/03/2022,09:01:24,0.080,0.0,0.063,0.001
05/03/2022,09:02:24,0.083,0.0,0.065,0.002
05/03/2022,09:03:24,0.078,0.0,0.066,0.001
05/03/2022,09:04:24,0.076,0.0,0.067,0.001
05/03/2022,09:05:23,0.071,0.0,0.069,0.002
05/03/2022,09:06:24,0.068,0.0,0.07,0.001
05/03/2022,09:07:24,0.069,0.0,0.071,0.001
05/03/2022,09:08:32,0.063,0.0,0.072,0.001
05/03/2022,09:09:24,0.062,0.0,0.073,0.001
05/03/2022,09:10:23,0.061,0.0,0.074,0.001
05/03/2022,09:11:23,0.068,0.0,0.075,0.001
05/03/2022,09:12:24,0.072,0.0,0.076,0.001
05/03/2022,09:13:24,0.066,0.0,0.077,0.001
05/03/2022,09:14:24,0.065,0.0,0.078,0.001
05/03/2022,09:15:23,0.067,0.0,0.08,0.002
05/03/2022,09:16:32,0.086,0.0,0.081,0.001
05/03/2022,09:17:23,0.079,0.0,0.082,0.001
05/03/2022,09:18:24,0.080,0.0,0.084,0.002
05/03/2022,09:19:24,0.083,0.0,0.085,0.001
05/03/2022,09:20:23,0.104,0.0,0.086,0.001
05/03/2022,09:21:24,0.103,0.0,0.088,0.002
05/03/2022,09:22:24,0.102,0.0,0.09,0.002
05/03/2022,09:23:23,0.113,0.0,0.092,0.002
05/03/2022,09:24:23,0.118,0.0,0.094,0.002
05/03/2022,09:25:23,0.120,0.0,0.096,0.002
05/03/2022,09:26:32,0.100,0.0,0.098,0.002
05/03/2022,09:27:22,0.099,0.0,0.099,0.001
05/03/2022,09:28:24,0.100,0.0,0.101,0.002
05/03/2022,09:29:24,0.089,0.0,0.102,0.001
05/03/2022,09:30:24,0.088,0.0,0.104,0.002
05/03/2022,09:31:24,0.083,0.0,0.105,0.001
05/03/2022,09:32:23,0.071,0.0,0.107,0.002
05/03/2022,09:33:24,0.072,0.0,0.108,0.001
05/03/2022,09:34:24,0.086,0.0,0.109,0.001
05/03/2022,09:35:24,0.080,0.0,0.11,0.001
05/03/2022,09:36:24,0.086,0.0,0.112,0.002
05/03/2022,09:37:24,0.121,0.0,0.114,0.002
05/03/2022,09:38:23,0.163,0.0,0.116,0.002
05/03/2022,09:39:23,0.181,0.0,0.119,0.003
05/03/2022,09:40:24,0.177,0.0,0.122,0.003
05/03/2022,09:41:24,0.170,0.0,0.125,0.003
05/03/2022,09:42:23,0.179,0.0,0.128,0.003
05/03/2022,09:43:24,0.189,0.0,0.131,0.003
05/03/2022,09:44:24,0.196,0.0,0.134,0.003
05/03/2022,09:45:24,0.202,0.0,0.137,0.003
05/03/2022,09:46:23,0.203,0.0,0.141,0.004
05/03/2022,09:47:23,0.212,0.0,0.144,0.003
05/03/2022,09:48:23,0.216,0.0,0.148,0.004
05/03/2022,09:49:24,0.200,0.0,0.151,0.003
05/03/2022,09:50:32,0.154,0.0,0.154,0.003
05/03/2022,09:51:32,0.148,0.0,0.157,0.003
05/03/2022,09:52:23,0.143,0.0,0.159,0.002
05/03/2022,09:53:24,0.141,0.0,0.161,0.002
05/03/2022,09:54:24,0.129,0.0,0.164,0.003
05/03/2022,09:55:24,0.143,0.0,0.166,0.002
05/03/2022,09:56:23,0.188,0.0,0.169,0.003
05/03/2022,09:57:23,0.213,0.0,0.172,0.003
05/03/2022,09:58:32,0.217,0.0,0.176,0.004
05/03/2022,09:59:25,0.225,1.0,0.179,0.003
05/03/2022,10:00:23,0.221,1.0,0.183,0.004
05/03/2022,10:01:24,0.223,1.0,0.187,0.004
05/03/2022,10:02:24,0.243,1.0,0.191,0.004
05/03/2022,10:03:24,0.258,1.0,0.195,0.004
05/03/2022,10:04:24,0.254,1.0,0.199,0.004
05/03/2022,10:05:23,0.244,1.0,0.203,0.004
05/03/2022,10:06:24,0.254,1.0,0.207,0.004
05/03/2022,10:07:24,0.264,1.0,0.212,0.005
05/03/2022,10:08:34,0.251,1.0,0.217,0.005
05/03/2022,10:09:23,0.247,1.0,0.22,0.003
05/03/2022,10:10:24,0.254,1.0,0.224,0.004
05/03/2022,10:11:24,0.266,1.0,0.229,0.005
05/03/2022,10:12:23,0.271,1.0,0.233,0.004
05/03/2022,10:13:24,0.282,1.0,0.238,0.005
05/03/2022,10:14:24,0.309,1.0,0.243,0.005
05/03/2022,10:15:24,0.301,1.0,0.248,0.005
05/03/2022,10:16:32,0.299,1.0,0.254,0.006